| time (UTC) | temp F | wind direction | speed MPH | gust MPH | rain 1hr in | rain 24hr in | rain mn in | humidity % | barometer mb |
| 20260504081608 | 37 | 354 | 13.0 | 20.0 | 0.00 | 0.00 | 0.00 | 71 | 1009.7 |
| 20260504070105 | 35 | 4 | 8.0 | 12.0 | 0.00 | 0.00 | 0.00 | 75 | 1009.9 |
| 20260504044605 | 40 | 10 | 12.0 | 18.0 | 0.00 | 0.00 | 0.00 | 71 | 1008.6 |
| 20260504043100 | 40 | 4 | 12.0 | 17.0 | 0.00 | 0.00 | 0.00 | 73 | 1008.5 |
| 20260504041558 | 40 | 13 | 10.0 | 14.0 | 0.00 | 0.00 | 0.00 | 72 | 1008.3 |
| 20260504034614 | 42 | 16 | 8.0 | 13.0 | 0.00 | 0.00 | 0.00 | 69 | 1008.2 |
| 20260504033058 | 43 | 41 | 11.0 | 17.0 | 0.00 | 0.00 | 0.00 | 67 | 1008.2 |
| 20260504031600 | 45 | 33 | 15.0 | 21.0 | 0.00 | 0.00 | 0.00 | 63 | 1008.1 |
| 20260504030058 | 46 | 13 | 18.0 | 27.0 | 0.00 | 0.00 | 0.00 | 61 | 1007.8 |
| 20260504024559 | 47 | 359 | 21.0 | 30.0 | 0.00 | 0.00 | 0.00 | 56 | 1007.6 |
| 20260504023058 | 49 | 35 | 16.0 | 31.0 | 0.00 | 0.00 | 0.00 | 56 | 1007.3 |
| 20260504021559 | 51 | 32 | 15.0 | 23.0 | 0.00 | 0.00 | 0.00 | 46 | 1006.6 |
| 20260504020059 | 53 | 43 | 19.0 | 32.0 | 0.00 | 0.00 | 0.00 | 42 | 1006.0 |
| 20260504014618 | 54 | 10 | 18.0 | 29.0 | 0.00 | 0.00 | 0.00 | 35 | 1005.4 |
| 20260504013104 | 55 | 359 | 18.0 | 30.0 | 0.00 | 0.00 | 0.00 | 34 | 1005.4 |
| 20260504011605 | 55 | 331 | 27.0 | 36.0 | 0.00 | 0.00 | 0.00 | 34 | 1005.3 |
| 20260504004601 | 57 | 18 | 20.0 | 44.0 | 0.00 | 0.00 | 0.00 | 36 | 1005.0 |
| 20260504003100 | 57 | 351 | 22.0 | 36.0 | 0.00 | 0.00 | 0.00 | 33 | 1005.0 |
| 20260504001616 | 57 | 4 | 23.0 | 33.0 | 0.00 | 0.00 | 0.00 | 33 | 1004.9 |
| 20260503234600 | 57 | 12 | 25.0 | 36.0 | 0.00 | 0.00 | 0.00 | 35 | 1004.7 |
| 20260503233103 | 57 | 8 | 24.0 | 37.0 | 0.00 | 0.00 | 0.00 | 37 | 1004.6 |
| 20260503231604 | 57 | 8 | 23.0 | 31.0 | 0.00 | 0.00 | 0.00 | 39 | 1004.4 |
| 20260503230108 | 57 | 351 | 21.0 | 29.0 | 0.00 | 0.00 | 0.00 | 38 | 1004.1 |
| 20260503224602 | 57 | 354 | 21.0 | 30.0 | 0.00 | 0.00 | 0.00 | 38 | 1004.0 |
| 20260503223059 | 58 | 23 | 24.0 | 34.0 | 0.00 | 0.00 | 0.00 | 39 | 1003.9 |
| 20260503221600 | 59 | 9 | 24.0 | 35.0 | 0.00 | 0.00 | 0.00 | 34 | 1003.5 |
| 20260503220104 | 60 | 354 | 27.0 | 35.0 | 0.00 | 0.00 | 0.00 | 32 | 1003.2 |
| 20260503214602 | 60 | 351 | 24.0 | 36.0 | 0.00 | 0.00 | 0.00 | 31 | 1002.9 |
| 20260503213112 | 62 | 359 | 26.0 | 35.0 | 0.00 | 0.00 | 0.00 | 30 | 1003.2 |
| 20260503211601 | 63 | 359 | 28.0 | 43.0 | 0.00 | 0.00 | 0.00 | 33 | 1003.2 |
| 20260503210105 | 61 | 349 | 25.0 | 37.0 | 0.00 | 0.00 | 0.00 | 33 | 1003.1 |
| 20260503204600 | 62 | 347 | 28.0 | 35.0 | 0.00 | 0.00 | 0.00 | 33 | 1003.2 |
| 20260503203105 | 62 | 4 | 28.0 | 36.0 | 0.00 | 0.00 | 0.00 | 31 | 1003.0 |
| 20260503201559 | 62 | 4 | 25.0 | 39.0 | 0.00 | 0.00 | 0.00 | 31 | 1003.2 |
| 20260503200105 | 62 | 347 | 24.0 | 35.0 | 0.00 | 0.00 | 0.00 | 30 | 1002.9 |
| 20260503194557 | 62 | 337 | 22.0 | 32.0 | 0.00 | 0.00 | 0.00 | 33 | 1002.8 |
| 20260503193112 | 62 | 346 | 25.0 | 36.0 | 0.00 | 0.00 | 0.00 | 32 | 1002.7 |
| 20260503191644 | 63 | 359 | 25.0 | 35.0 | 0.00 | 0.00 | 0.00 | 29 | 1002.8 |
| 20260503184611 | 66 | 347 | 21.0 | 34.0 | 0.00 | 0.00 | 0.00 | 29 | 1002.6 |
| 20260503183110 | 66 | 359 | 27.0 | 37.0 | 0.00 | 0.00 | 0.00 | 29 | 1002.6 |
| 20260503181612 | 67 | 344 | 20.0 | 34.0 | 0.00 | 0.00 | 0.00 | 30 | 1002.6 |
| 20260503174603 | 66 | 334 | 19.0 | 31.0 | 0.00 | 0.00 | 0.00 | 32 | 1002.9 |
| 20260503173103 | 67 | 337 | 22.0 | 31.0 | 0.00 | 0.00 | 0.00 | 31 | 1003.1 |
| 20260503171558 | 68 | 351 | 22.0 | 30.0 | 0.00 | 0.00 | 0.00 | 29 | 1003.1 |
| 20260503160104 | 64 | 308 | 19.0 | 25.0 | 0.00 | 0.00 | 0.00 | 35 | 1003.8 |